Vorticity
7 8 6 8 1 17 10 2 2 20 16 29 18 10 11 6 7 10 10 19 26 21 22 20 16 12 16 20 15 10 4 2 2 2 8 7 7 11 10 9 14 13 3 6 4 6 4
8 5 7 5 7 17 6 -8 32 28 32 19 12 0 10 17 14 25 28 22 23 20 13 9 11 10 9 10 11 10 10 9 8 9 10 12 13 4 9 9 7 5 6 3 4 5 4
12 3 7 10 2 13 9 0 25 24 5 17 6 7 18 30 24 22 16 13 5 3 7 6 4 5 4 7 4 6 8 10 11 9 10 8 5 7 8 7 6 7 3 3 3 3 6
9 10 17 9 29 12 -3 13 19 -1 4 6 15 31 23 23 12 7 5 6 9 5 1 2 3 2 5 4 4 4 3 5 5 4 6 8 8 5 9 4 5 6 2 6 7 9 5
16 8 16 11 5 4 -4 6 13 7 9 31 23 18 14 7 3 3 6 5 3 1 3 3 4 3 2 3 3 3 4 4 4 3 3 4 4 3 5 4 6 8 8 7 6 8 4
15 7 4 21 -3 -4 17 15 11 11 36 18 12 8 5 2 2 3 4 3 3 2 2 5 4 5 5 5 5 6 5 5 6 6 7 5 4 5 7 10 7 6 4 3 5 3 3
6 -0 20 5 -2 13 14 13 16 25 15 8 5 3 2 1 3 5 4 4 4 1 4 5 5 4 5 7 6 5 5 4 6 4 5 9 8 7 7 9 9 8 8 8 7 5 6
6 15 -2 5 5 17 16 18 14 14 10 6 4 5 1 4 5 3 4 3 2 5 2 2 1 3 3 3 7 7 6 6 5 3 5 6 4 5 5 5 5 5 8 7 8 4 3
3 10 5 8 18 16 16 13 11 8 8 7 3 4 4 5 5 5 1 4 2 2 0 1 2 4 2 3 0 8 11 10 7 7 7 5 5 4 6 5 5 4 5 7 6 8 5
7 8 3 14 17 16 16 10 11 9 2 3 6 7 6 5 3 1 -0 -1 -0 -2 -1 2 -3 -2 -1 0 2 0 6 11 6 8 8 7 6 4 4 3 3 4 4 6 6 10 8
7 9 4 10 19 13 11 7 8 6 1 8 6 4 4 -0 2 2 -1 -2 -2 2 0 -1 0 -0 1 4 5 7 4 8 7 6 4 3 5 6 7 7 7 5 5 4 4 6 8
7 7 9 13 17 16 8 7 10 5 4 5 3 2 2 -2 -2 0 1 -1 -1 -0 -2 -1 1 2 0 2 6 10 10 7 5 8 8 6 5 4 3 4 4 4 6 9 8 5 5
7 7 8 15 13 16 7 4 9 5 5 3 3 2 2 -0 0 1 -1 -1 0 -0 -2 1 -0 0 3 6 9 8 12 11 10 7 5 8 17 21 21 15 11 11 12 11 11 12 8
7 7 8 14 14 17 7 2 6 7 4 1 0 1 1 1 0 0 0 -1 2 4 3 4 7 10 10 7 12 16 13 11 9 13 19 11 17 17 19 18 16 16 12 11 10 7 6
6 8 7 10 15 18 7 2 1 3 4 2 1 1 1 2 -0 -0 1 1 2 5 7 14 12 13 14 15 13 9 10 17 13 10 12 11 11 9 8 8 8 7 6 7 7 7 9
7 6 9 9 13 15 10 4 1 2 3 2 2 2 1 0 1 2 3 4 5 7 18 17 15 15 12 11 15 18 11 9 8 3 8 6 5 6 5 5 6 5 6 8 7 9 7
7 6 9 9 10 17 12 8 4 3 3 3 1 0 -1 0 2 3 3 3 9 20 13 11 13 14 13 12 11 10 7 6 6 10 9 10 10 9 10 9 9 10 9 8 7 5 7
7 6 7 10 8 14 14 10 6 3 3 3 1 1 0 3 3 2 4 12 17 10 9 6 12 8 9 10 9 9 11 11 9 8 8 10 11 10 9 10 9 8 9 7 8 9 3
7 6 6 9 9 10 16 10 9 5 3 2 3 2 3 3 2 6 14 13 11 9 4 4 8 11 10 10 7 7 5 9 12 11 8 4 5 7 7 5 6 12 13 18 10 9 16
7 6 6 7 10 8 17 11 9 9 6 4 4 4 3 2 4 17 13 9 14 6 4 8 10 10 9 5 2 4 3 1 -0 -0 -3 2 2 4 6 8 13 13 9 10 10 8 7
6 5 6 8 8 10 11 16 11 7 9 5 5 5 4 13 19 11 10 10 5 6 9 9 8 8 6 2 2 0 2 1 1 1 1 -0 1 -1 3 5 11 15 10 9 11 8 8
5 7 6 6 6 11 11 13 17 9 10 9 6 6 10 14 10 10 8 7 9 11 8 6 8 5 5 2 2 -0 -1 1 0 3 2 -1 -3 3 2 13 15 18 13 10 10 13 11
4 8 7 7 6 9 12 11 13 15 13 11 13 11 12 10 11 14 9 7 9 7 7 7 3 4 4 2 2 3 1 1 4 3 2 2 5 -3 15 15 20 16 12 17 15 15 14
7 7 8 7 8 8 12 12 9 11 15 13 14 10 10 10 11 9 10 9 7 7 6 4 3 4 2 4 3 2 2 4 4 4 -0 4 -1 2 4 11 17 14 16 11 16 10 8
8 6 7 7 8 8 10 11 10 11 11 10 8 11 10 12 9 9 10 8 7 5 6 4 4 4 3 3 3 3 3 4 4 2 -1 2 -4 9 8 12 17 5 18 7 4 7 5
7 8 7 7 9 8 10 10 9 8 8 9 6 7 9 8 10 10 7 7 6 6 5 4 4 3 3 3 3 3 4 2 6 1 -2 -0 -2 7 15 13 18 13 1 5 5 2 2
6 5 10 9 8 8 8 8 8 8 5 5 7 5 5 7 10 8 8 6 5 4 4 3 2 2 3 1 4 3 4 2 5 4 0 -1 1 14 17 13 22 7 2 1 3 2 2
5 6 6 9 9 8 9 8 8 8 8 6 7 7 5 4 5 5 5 4 3 3 2 1 1 1 1 4 4 2 3 6 7 -0 -1 -4 12 16 16 10 14 9 4 4 5 5 4
7 6 8 4 10 7 8 10 9 7 7 7 8 7 7 6 5 3 2 2 2 1 1 -0 0 1 1 3 5 5 5 7 8 -2 -4 7 15 15 7 14 9 5 7 4 4 4 5
Height
5747 5748 5748 5749 5750 5749 5748 5747 5746 5745 5746 5747 5749 5751 5753 5755 5758 5760 5763 5766 5770 5774 5778 5782 5786 5790 5793 5797 5800 5803 5805 5807 5809 5811 5813 5815 5817 5820 5822 5824 5826 5827 5828 5828 5832 5832 5834
5743 5744 5745 5746 5747 5747 5747 5747 5744 5744 5744 5747 5750 5751 5753 5754 5757 5760 5763 5768 5772 5777 5781 5786 5790 5793 5796 5799 5802 5804 5807 5809 5810 5812 5814 5816 5818 5821 5823 5825 5827 5828 5829 5830 5830 5832 5833
5740 5741 5742 5743 5745 5745 5745 5746 5746 5745 5746 5747 5749 5752 5753 5755 5758 5762 5767 5772 5776 5781 5785 5789 5793 5796 5799 5803 5805 5807 5809 5812 5813 5814 5816 5817 5819 5821 5824 5826 5827 5829 5829 5831 5831 5833 5833
5737 5738 5739 5741 5742 5743 5744 5745 5746 5746 5747 5748 5751 5753 5755 5759 5763 5767 5771 5776 5781 5785 5788 5792 5795 5798 5802 5805 5808 5810 5812 5814 5815 5817 5818 5819 5821 5823 5824 5826 5827 5829 5830 5831 5831 5832 5832
5734 5734 5736 5738 5740 5742 5743 5744 5746 5747 5749 5751 5753 5757 5761 5763 5767 5772 5776 5780 5784 5788 5792 5795 5799 5802 5805 5808 5810 5812 5813 5815 5816 5818 5819 5821 5823 5824 5826 5827 5829 5829 5830 5831 5832 5831 5830
5731 5732 5735 5736 5738 5741 5742 5743 5745 5748 5751 5753 5757 5761 5765 5768 5772 5776 5780 5784 5788 5792 5796 5799 5803 5807 5809 5811 5813 5814 5815 5817 5819 5821 5822 5823 5824 5826 5827 5828 5829 5829 5829 5829 5829 5828 5827
5729 5730 5733 5734 5737 5739 5741 5743 5746 5750 5754 5758 5761 5765 5769 5773 5777 5781 5785 5789 5794 5797 5799 5803 5805 5808 5810 5812 5814 5815 5817 5818 5820 5821 5822 5824 5825 5826 5827 5827 5827 5827 5827 5827 5826 5825 5826
5726 5728 5732 5733 5736 5738 5741 5744 5748 5752 5758 5762 5765 5769 5774 5777 5781 5785 5789 5793 5796 5800 5802 5805 5807 5810 5812 5813 5815 5816 5817 5819 5820 5821 5822 5823 5823 5824 5824 5825 5825 5825 5824 5824 5824 5824 5824
5723 5726 5729 5732 5736 5738 5741 5746 5750 5755 5760 5765 5769 5773 5777 5781 5784 5787 5791 5795 5798 5801 5805 5807 5809 5811 5813 5815 5815 5816 5817 5817 5818 5820 5820 5821 5822 5822 5822 5822 5823 5823 5822 5822 5822 5822 5821
5720 5723 5726 5730 5735 5738 5742 5747 5752 5757 5763 5767 5772 5776 5779 5783 5788 5790 5794 5797 5800 5802 5805 5809 5810 5811 5813 5813 5815 5816 5816 5818 5818 5819 5819 5819 5819 5819 5819 5819 5820 5819 5819 5819 5818 5818 5818
5718 5721 5724 5727 5732 5737 5743 5748 5753 5759 5764 5769 5773 5777 5781 5785 5788 5792 5796 5798 5801 5803 5807 5809 5810 5811 5812 5814 5815 5814 5814 5815 5816 5816 5818 5818 5817 5817 5817 5816 5816 5816 5816 5816 5815 5814 5814
5716 5719 5723 5726 5732 5737 5743 5748 5754 5760 5765 5770 5775 5779 5783 5786 5790 5794 5796 5799 5802 5805 5807 5809 5809 5810 5812 5812 5813 5812 5813 5813 5814 5814 5814 5814 5814 5813 5813 5813 5812 5812 5811 5811 5810 5809 5808
5713 5717 5721 5725 5730 5736 5742 5748 5754 5760 5766 5771 5775 5780 5784 5787 5791 5794 5797 5800 5803 5803 5806 5808 5808 5808 5809 5810 5810 5809 5810 5810 5811 5811 5811 5810 5809 5808 5807 5807 5807 5807 5807 5806 5806 5804 5803
5711 5714 5719 5724 5729 5735 5742 5748 5754 5760 5766 5771 5775 5780 5784 5788 5791 5794 5797 5800 5801 5802 5803 5804 5805 5805 5806 5806 5806 5806 5807 5807 5808 5808 5808 5807 5807 5805 5804 5804 5803 5803 5803 5802 5800 5800 5798
5708 5713 5717 5721 5727 5733 5740 5747 5753 5760 5765 5770 5775 5779 5783 5787 5790 5793 5796 5798 5799 5800 5801 5800 5801 5801 5802 5802 5803 5803 5804 5805 5805 5806 5806 5805 5804 5803 5802 5801 5801 5800 5799 5798 5796 5795 5793
5705 5711 5715 5719 5725 5731 5738 5745 5752 5758 5764 5768 5773 5777 5781 5785 5788 5791 5794 5795 5796 5797 5797 5797 5798 5798 5799 5799 5800 5801 5802 5803 5803 5803 5803 5803 5802 5801 5800 5798 5797 5796 5794 5793 5791 5788 5786
5702 5708 5713 5717 5723 5729 5736 5742 5749 5755 5761 5766 5771 5776 5779 5783 5786 5789 5791 5792 5793 5794 5795 5796 5796 5796 5797 5798 5799 5799 5801 5801 5801 5801 5801 5800 5800 5800 5797 5796 5794 5792 5789 5787 5784 5782 5778
5698 5704 5710 5715 5720 5726 5733 5739 5746 5752 5758 5764 5768 5773 5777 5780 5784 5786 5788 5789 5790 5791 5793 5794 5794 5795 5796 5797 5798 5799 5800 5800 5800 5799 5799 5798 5797 5795 5794 5791 5789 5786 5782 5779 5776 5773 5769
5693 5700 5706 5712 5717 5723 5729 5736 5742 5749 5754 5760 5765 5769 5773 5777 5780 5782 5784 5785 5787 5789 5791 5792 5793 5795 5795 5796 5797 5798 5798 5798 5798 5798 5797 5796 5794 5792 5790 5788 5783 5779 5775 5771 5767 5764 5763
5688 5696 5702 5708 5713 5719 5725 5732 5739 5745 5750 5756 5761 5766 5770 5773 5775 5778 5780 5782 5784 5786 5789 5791 5792 5793 5794 5795 5796 5796 5796 5796 5796 5795 5793 5791 5789 5787 5784 5781 5777 5771 5766 5760 5756 5754 5750
5686 5691 5697 5704 5711 5716 5721 5728 5734 5740 5746 5752 5757 5762 5765 5768 5771 5774 5776 5778 5780 5783 5786 5788 5790 5791 5792 5793 5793 5793 5793 5792 5791 5790 5789 5787 5785 5782 5778 5774 5772 5764 5757 5751 5748 5745 5742
5682 5689 5694 5700 5707 5712 5718 5723 5729 5736 5742 5748 5753 5757 5760 5763 5766 5769 5772 5775 5777 5780 5783 5785 5787 5788 5789 5789 5790 5790 5790 5789 5788 5786 5783 5780 5778 5775 5774 5767 5765 5759 5750 5745 5742 5738 5734
5678 5685 5691 5696 5703 5708 5713 5719 5725 5731 5738 5743 5747 5751 5756 5759 5762 5765 5769 5771 5774 5776 5779 5781 5783 5784 5785 5786 5786 5785 5785 5785 5783 5780 5777 5773 5770 5766 5765 5760 5758 5751 5744 5740 5737 5732 5728
5673 5680 5686 5692 5699 5705 5710 5716 5721 5727 5732 5738 5742 5747 5751 5755 5757 5760 5763 5767 5770 5772 5775 5777 5779 5780 5781 5780 5780 5781 5780 5779 5778 5774 5771 5767 5762 5757 5754 5750 5751 5742 5736 5734 5731 5727 5723
5668 5674 5681 5688 5694 5700 5706 5712 5717 5723 5727 5733 5738 5742 5745 5749 5753 5756 5759 5762 5765 5768 5770 5772 5773 5775 5775 5775 5775 5775 5775 5774 5772 5769 5765 5760 5755 5749 5743 5740 5744 5736 5731 5727 5723 5723 5718
5664 5671 5677 5683 5689 5695 5701 5707 5712 5719 5724 5729 5733 5737 5741 5744 5748 5752 5755 5758 5761 5763 5765 5766 5767 5768 5769 5769 5769 5769 5768 5767 5765 5762 5759 5754 5748 5743 5735 5731 5728 5724 5722 5720 5716 5711 5708
5658 5665 5672 5678 5684 5690 5696 5701 5708 5714 5719 5724 5728 5732 5737 5740 5743 5747 5751 5753 5756 5757 5759 5760 5761 5762 5763 5762 5762 5762 5762 5760 5758 5754 5751 5747 5740 5735 5729 5724 5722 5716 5712 5710 5707 5703 5695
5653 5660 5667 5673 5679 5685 5690 5696 5702 5708 5713 5718 5723 5726 5731 5735 5738 5741 5744 5747 5749 5751 5753 5754 5755 5755 5755 5755 5755 5754 5753 5752 5749 5747 5742 5739 5730 5725 5721 5718 5711 5707 5704 5701 5697 5691 5686
5647 5654 5661 5667 5673 5679 5685 5690 5696 5701 5706 5711 5716 5720 5723 5728 5732 5735 5738 5740 5743 5744 5746 5746 5747 5747 5747 5746 5746 5745 5743 5742 5739 5737 5735 5732 5724 5718 5712 5713 5702 5698 5693 5689 5684 5679 5672